Hartford Brainard Airport
KHFD : now visible

Airfield :











YOU CAN JOIN US ON...

 
LOGIN :

Register | Disclaimer

   EN    FR    IT 

 









Legend :    VFR   Marginal VFR   IFR   Intensive IFR   Very Intensive IFR
Visi :
Ceiling :
>= 8 km
>= 3000ft
5 to 8 km
1000 to 3000 ft
1500m to 5 km
500 to 1000 ft
800 to 1500m
200 to 500 ft
< 800m
< 200 ft
Symbols :   Thunderstorms  Fog  Heavy snow  Heavy precipitations  Wind > 20 kt






- Airport Elevation : 18 ft


KHFD - Hartford Brainard

CURRENT METAR :
  • 050653Z AUTO 35004KT 10SM FEW007 BKN017 OVC021 19/17 A3009 RMK AO2 SLP190 T01890167

EXPIRED METARs :
  • 050553Z AUTO 02006KT 10SM OVC026 19/17 A3011 RMK AO2 RAE07 SLP195 P0000 60002 T01890167 10217 20189 58012
  • 050544Z AUTO 02006KT 10SM BKN026 OVC032 19/17 A3011 RMK AO2 RAE07 P0000 T01890167
  • 050453Z AUTO 03005KT 10SM -RA OVC033 19/17 A3012 RMK AO2 RAE28B51 SLP199 P0001 T01890167 402390156

TAF N/A
KZBW FIR / North America



MET'MAP, your aeronautical weather chart ! - Copyright ORBIFLY December 2007 - Disclaimer

ORBIFLY MET'MAP TEAM :

Programming & Development : Alexandra Zaïnal
Concept & original design : Baudouin d'Aumeries
Assistance for programming : Marc-Olivier Méhu
Technical & hardware support : Manuel Goepfert

Contact : metmap@orbifly.com




SOURCES & CREDITS :

   NOAA       Earth
Advisory